| time (UTC) | temp F | wind direction | speed MPH | gust MPH | rain 1hr in | rain 24hr in | rain mn in | humidity % | barometer mb |
| 20260903011557 | 75 | 27 | 1.0 | 4.0 | 0.00 | 0.00 | 0.00 | 37 | 1020.6 |
| 20260903011327 | 76 | 311 | 2.0 | 5.0 | 0.00 | 0.00 | 0.00 | 37 | 1020.6 |
| 20260903010556 | 76 | 297 | 3.0 | 5.0 | 0.00 | 0.00 | 0.00 | 37 | 1020.6 |
| 20260903010056 | 76 | 291 | 2.0 | 5.0 | 0.00 | 0.00 | 0.00 | 37 | 1020.6 |
| 20260903005554 | 76 | 336 | 2.0 | 6.0 | 0.00 | 0.00 | 0.00 | 37 | 1020.6 |
| 20260903005055 | 76 | 331 | 2.0 | 6.0 | 0.00 | 0.00 | 0.00 | 36 | 1020.6 |
| 20260903004826 | 76 | 23 | 1.0 | 6.0 | 0.00 | 0.00 | 0.00 | 37 | 1020.6 |
| 20260903004054 | 76 | 299 | 1.0 | 4.0 | 0.00 | 0.00 | 0.00 | 37 | 1020.6 |
| 20260903003553 | 76 | 312 | 2.0 | 6.0 | 0.00 | 0.00 | 0.00 | 36 | 1020.6 |
| 20260903003324 | 77 | 293 | 3.0 | 7.0 | 0.00 | 0.00 | 0.00 | 35 | 1020.6 |
| 20260903002825 | 78 | 305 | 4.0 | 8.0 | 0.00 | 0.00 | 0.00 | 35 | 1020.6 |
| 20260903002054 | 78 | 301 | 5.0 | 8.0 | 0.00 | 0.00 | 0.00 | 35 | 1020.6 |
| 20260903001554 | 78 | 285 | 5.0 | 8.0 | 0.00 | 0.00 | 0.00 | 35 | 1020.6 |
| 20260903001323 | 78 | 288 | 5.0 | 8.0 | 0.00 | 0.00 | 0.00 | 35 | 1020.6 |
| 20260903000821 | 78 | 299 | 6.0 | 11.0 | 0.00 | 0.00 | 0.00 | 35 | 1020.6 |
| 20260903000051 | 78 | 266 | 7.0 | 12.0 | 0.00 | 0.00 | 0.00 | 34 | 1020.6 |
| 20260902235551 | 80 | 289 | 7.0 | 13.0 | 0.00 | 0.00 | 0.00 | 33 | 1020.6 |
| 20260902235051 | 80 | 309 | 8.0 | 13.0 | 0.00 | 0.00 | 0.00 | 32 | 1020.6 |
| 20260902234548 | 81 | 323 | 8.0 | 14.0 | 0.00 | 0.00 | 0.00 | 31 | 1020.6 |
| 20260902234050 | 81 | 311 | 9.0 | 14.0 | 0.00 | 0.00 | 0.00 | 31 | 1020.6 |
| 20260902233549 | 81 | 294 | 8.0 | 14.0 | 0.00 | 0.00 | 0.00 | 31 | 1020.6 |
| 20260902233049 | 81 | 313 | 9.0 | 14.0 | 0.00 | 0.00 | 0.00 | 30 | 1020.6 |
| 20260902232546 | 81 | 310 | 9.0 | 15.0 | 0.00 | 0.00 | 0.00 | 31 | 1020.6 |
| 20260902232047 | 82 | 313 | 10.0 | 15.0 | 0.00 | 0.00 | 0.00 | 30 | 1020.6 |
| 20260902231550 | 80 | 296 | 11.0 | 17.0 | 0.00 | 0.00 | 0.00 | 32 | 1020.6 |
| 20260902231545 | 82 | 302 | 10.0 | 16.0 | 0.00 | 0.00 | 0.00 | 30 | 1020.6 |
| 20260902230819 | 79 | 297 | 12.0 | 19.0 | 0.00 | 0.00 | 0.00 | 34 | 1020.6 |
| 20260902230050 | 79 | 298 | 14.0 | 19.0 | 0.00 | 0.00 | 0.00 | 35 | 1020.6 |
| 20260902225548 | 80 | 307 | 14.0 | 23.0 | 0.00 | 0.00 | 0.00 | 33 | 1020.6 |
| 20260902225043 | 80 | 295 | 9.0 | 23.0 | 0.00 | 0.00 | 0.00 | 32 | 1020.6 |
| 20260902224544 | 82 | 288 | 3.0 | 11.0 | 0.00 | 0.00 | 0.00 | 29 | 1020.6 |
| 20260902224045 | 82 | 297 | 1.0 | 6.0 | 0.00 | 0.00 | 0.00 | 28 | 1020.6 |
| 20260902223544 | 83 | 249 | 0.0 | 4.0 | 0.00 | 0.00 | 0.00 | 28 | 1020.6 |
| 20260902223314 | 83 | 274 | 0.0 | 0.0 | 0.00 | 0.00 | 0.00 | 28 | 1020.6 |
| 20260902222543 | 83 | 168 | 1.0 | 5.0 | 0.00 | 0.00 | 0.00 | 27 | 1020.6 |
| 20260902222310 | 83 | 109 | 1.0 | 5.0 | 0.00 | 0.00 | 0.00 | 27 | 1020.6 |
| 20260902221538 | 83 | 91 | 1.0 | 10.0 | 0.00 | 0.00 | 0.00 | 26 | 1020.6 |
| 20260902221039 | 84 | 211 | 2.0 | 10.0 | 0.00 | 0.00 | 0.00 | 25 | 1020.6 |
| 20260902220539 | 85 | 101 | 1.0 | 3.0 | 0.00 | 0.00 | 0.00 | 25 | 1020.6 |
| 20260902220037 | 86 | 86 | 2.0 | 7.0 | 0.00 | 0.00 | 0.00 | 25 | 1020.6 |
| 20260902215539 | 86 | 97 | 4.0 | 9.0 | 0.00 | 0.00 | 0.00 | 25 | 1020.6 |
| 20260902215038 | 85 | 108 | 3.0 | 9.0 | 0.00 | 0.00 | 0.00 | 25 | 1020.6 |
| 20260902214810 | 87 | 116 | 1.0 | 7.0 | 0.00 | 0.00 | 0.00 | 24 | 1020.6 |
| 20260902214037 | 87 | 238 | 3.0 | 13.0 | 0.00 | 0.00 | 0.00 | 25 | 1020.6 |
| 20260902213538 | 86 | 246 | 4.0 | 13.0 | 0.00 | 0.00 | 0.00 | 25 | 1020.6 |
| 20260902213038 | 85 | 77 | 4.0 | 9.0 | 0.00 | 0.00 | 0.00 | 25 | 1020.6 |
| 20260902212539 | 85 | 103 | 4.0 | 9.0 | 0.00 | 0.00 | 0.00 | 25 | 1020.6 |
| 20260902212039 | 86 | 103 | 5.0 | 9.0 | 0.00 | 0.00 | 0.00 | 24 | 1020.6 |
| 20260902211538 | 85 | 88 | 6.0 | 9.0 | 0.00 | 0.00 | 0.00 | 25 | 1020.6 |
| 20260902211039 | 85 | 98 | 7.0 | 13.0 | 0.00 | 0.00 | 0.00 | 26 | 1020.6 |
| 20260902210537 | 86 | 96 | 7.0 | 13.0 | 0.00 | 0.00 | 0.00 | 25 | 1020.6 |
| 20260902210039 | 85 | 117 | 6.0 | 15.0 | 0.00 | 0.00 | 0.00 | 25 | 1020.6 |
| 20260902205537 | 85 | 110 | 6.0 | 15.0 | 0.00 | 0.00 | 0.00 | 25 | 1020.6 |
| 20260902205038 | 86 | 115 | 6.0 | 11.0 | 0.00 | 0.00 | 0.00 | 26 | 1020.6 |
| 20260902204538 | 85 | 63 | 4.0 | 9.0 | 0.00 | 0.00 | 0.00 | 25 | 1020.6 |
| 20260902204039 | 85 | 75 | 5.0 | 14.0 | 0.00 | 0.00 | 0.00 | 25 | 1020.6 |
| 20260902203537 | 86 | 82 | 7.0 | 14.0 | 0.00 | 0.00 | 0.00 | 26 | 1020.6 |
| 20260902203039 | 86 | 80 | 5.0 | 11.0 | 0.00 | 0.00 | 0.00 | 25 | 1020.6 |
| 20260902202538 | 86 | 89 | 5.0 | 14.0 | 0.00 | 0.00 | 0.00 | 26 | 1020.6 |
| 20260902202309 | 85 | 108 | 5.0 | 14.0 | 0.00 | 0.00 | 0.00 | 27 | 1020.6 |
| 20260902201539 | 84 | 111 | 4.0 | 10.0 | 0.00 | 0.00 | 0.00 | 26 | 1020.6 |
| 20260902201038 | 85 | 106 | 4.0 | 10.0 | 0.00 | 0.00 | 0.00 | 25 | 1020.6 |
| 20260902200539 | 84 | 232 | 4.0 | 8.0 | 0.00 | 0.00 | 0.00 | 26 | 1020.6 |
| 20260902200035 | 84 | 96 | 4.0 | 10.0 | 0.00 | 0.00 | 0.00 | 26 | 1020.6 |
| 20260902195536 | 84 | 110 | 5.0 | 11.0 | 0.00 | 0.00 | 0.00 | 26 | 1020.6 |
| 20260902195033 | 83 | 325 | 5.0 | 11.0 | 0.00 | 0.00 | 0.00 | 26 | 1020.6 |
| 20260902194540 | 83 | 96 | 4.0 | 11.0 | 0.00 | 0.00 | 0.00 | 27 | 1020.6 |
| 20260902194535 | 84 | 97 | 4.0 | 9.0 | 0.00 | 0.00 | 0.00 | 26 | 1020.6 |
| 20260902193535 | 84 | 112 | 6.0 | 11.0 | 0.00 | 0.00 | 0.00 | 27 | 1020.6 |
| 20260902193305 | 84 | 72 | 5.0 | 11.0 | 0.00 | 0.00 | 0.00 | 27 | 1020.6 |
| 20260902192534 | 83 | 90 | 5.0 | 11.0 | 0.00 | 0.00 | 0.00 | 27 | 1020.6 |
| 20260902192038 | 83 | 120 | 5.0 | 10.0 | 0.00 | 0.00 | 0.00 | 29 | 1020.6 |
| 20260902192034 | 83 | 111 | 5.0 | 10.0 | 0.00 | 0.00 | 0.00 | 28 | 1020.6 |
| 20260902191035 | 83 | 126 | 5.0 | 10.0 | 0.00 | 0.00 | 0.00 | 29 | 1020.6 |
| 20260902190804 | 83 | 80 | 3.0 | 10.0 | 0.00 | 0.00 | 0.00 | 28 | 1020.6 |
| 20260902190035 | 83 | 98 | 2.0 | 8.0 | 0.00 | 0.00 | 0.00 | 28 | 1020.6 |
| 20260902185535 | 83 | 59 | 2.0 | 11.0 | 0.00 | 0.00 | 0.00 | 28 | 1020.6 |
| 20260902185306 | 82 | 96 | 3.0 | 11.0 | 0.00 | 0.00 | 0.00 | 29 | 1020.6 |
| 20260902184533 | 82 | 86 | 2.0 | 7.0 | 0.00 | 0.00 | 0.00 | 29 | 1020.6 |
| 20260902184033 | 83 | 121 | 1.0 | 6.0 | 0.00 | 0.00 | 0.00 | 27 | 1020.6 |
| 20260902183531 | 83 | 114 | 2.0 | 9.0 | 0.00 | 0.00 | 0.00 | 29 | 1020.6 |
| 20260902183034 | 83 | 131 | 4.0 | 9.0 | 0.00 | 0.00 | 0.00 | 30 | 1020.6 |
| 20260902182804 | 81 | 98 | 4.0 | 10.0 | 0.00 | 0.00 | 0.00 | 30 | 1020.6 |
| 20260902182031 | 81 | 89 | 4.0 | 10.0 | 0.00 | 0.00 | 0.00 | 30 | 1020.6 |
| 20260902181536 | 81 | 66 | 5.0 | 15.0 | 0.00 | 0.00 | 0.00 | 30 | 1020.6 |
| 20260902181531 | 81 | 91 | 5.0 | 15.0 | 0.00 | 0.00 | 0.00 | 31 | 1020.6 |
| 20260902180530 | 81 | 58 | 5.0 | 10.0 | 0.00 | 0.00 | 0.00 | 28 | 1020.6 |
| 20260902180033 | 82 | 94 | 3.0 | 10.0 | 0.00 | 0.00 | 0.00 | 32 | 1020.6 |
| 20260902175528 | 81 | 80 | 1.0 | 8.0 | 0.00 | 0.00 | 0.00 | 29 | 1020.6 |
| 20260902175027 | 81 | 106 | 2.0 | 7.0 | 0.00 | 0.00 | 0.00 | 31 | 1020.6 |
| 20260902174524 | 80 | 195 | 3.0 | 10.0 | 0.00 | 0.00 | 0.00 | 31 | 1020.6 |
| 20260902174033 | 80 | 117 | 3.0 | 10.0 | 0.00 | 0.00 | 0.00 | 32 | 1020.6 |
| 20260902173524 | 80 | 94 | 2.0 | 9.0 | 0.00 | 0.00 | 0.00 | 31 | 1020.6 |
| 20260902173029 | 80 | 90 | 3.0 | 9.0 | 0.00 | 0.00 | 0.00 | 32 | 1020.6 |
| 20260902172523 | 80 | 110 | 4.0 | 10.0 | 0.00 | 0.00 | 0.00 | 34 | 1020.6 |
| 20260902172308 | 80 | 83 | 3.0 | 10.0 | 0.00 | 0.00 | 0.00 | 34 | 1020.6 |
| 20260902171524 | 80 | 118 | 1.0 | 8.0 | 0.00 | 0.00 | 0.00 | 36 | 1020.6 |
| 20260902171035 | 79 | 58 | 2.0 | 8.0 | 0.00 | 0.00 | 0.00 | 35 | 1020.6 |
| 20260902170523 | 78 | 91 | 4.0 | 10.0 | 0.00 | 0.00 | 0.00 | 35 | 1020.6 |
| 20260902170027 | 78 | 201 | 5.0 | 10.0 | 0.00 | 0.00 | 0.00 | 36 | 1020.6 |
| 20260902165520 | 79 | 72 | 4.0 | 10.0 | 0.00 | 0.00 | 0.00 | 35 | 1020.6 |
| 20260902165300 | 78 | 103 | 5.0 | 10.0 | 0.00 | 0.00 | 0.00 | 37 | 1020.6 |
| 20260902164752 | 78 | 121 | 5.0 | 12.0 | 0.00 | 0.00 | 0.00 | 36 | 1020.6 |
| 20260902164018 | 78 | 83 | 3.0 | 12.0 | 0.00 | 0.00 | 0.00 | 37 | 1020.6 |
| 20260902163515 | 78 | 103 | 4.0 | 9.0 | 0.00 | 0.00 | 0.00 | 37 | 1020.6 |
| 20260902163016 | 78 | 123 | 3.0 | 8.0 | 0.00 | 0.00 | 0.00 | 37 | 1020.6 |
| 20260902162517 | 78 | 105 | 2.0 | 8.0 | 0.00 | 0.00 | 0.00 | 38 | 1020.6 |
| 20260902162017 | 77 | 117 | 2.0 | 8.0 | 0.00 | 0.00 | 0.00 | 37 | 1020.6 |
| 20260902161514 | 77 | 120 | 3.0 | 6.0 | 0.00 | 0.00 | 0.00 | 38 | 1020.6 |
| 20260902161014 | 77 | 127 | 3.0 | 7.0 | 0.00 | 0.00 | 0.00 | 39 | 1020.6 |
| 20260902160511 | 77 | 134 | 1.0 | 7.0 | 0.00 | 0.00 | 0.00 | 39 | 1020.6 |
| 20260902160013 | 77 | 95 | 1.0 | 7.0 | 0.00 | 0.00 | 0.00 | 39 | 1020.6 |
| 20260902155509 | 77 | 121 | 1.0 | 7.0 | 0.00 | 0.00 | 0.00 | 38 | 1020.6 |
| 20260902155240 | 77 | 82 | 1.0 | 4.0 | 0.00 | 0.00 | 0.00 | 40 | 1020.6 |
| 20260902154512 | 77 | 87 | 0.0 | 3.0 | 0.00 | 0.00 | 0.00 | 39 | 1020.6 |
| 20260902154010 | 76 | 105 | 0.0 | 4.0 | 0.00 | 0.00 | 0.00 | 39 | 1020.6 |
| 20260902153510 | 76 | 90 | 1.0 | 6.0 | 0.00 | 0.00 | 0.00 | 37 | 1020.6 |
| 20260902153009 | 75 | 107 | 1.0 | 6.0 | 0.00 | 0.00 | 0.00 | 36 | 1020.6 |
| 20260902152509 | 75 | 112 | 1.0 | 6.0 | 0.00 | 0.00 | 0.00 | 37 | 1020.6 |
| 20260902152010 | 75 | 125 | 1.0 | 6.0 | 0.00 | 0.00 | 0.00 | 36 | 1020.6 |
| 20260902151509 | 75 | 88 | 0.0 | 6.0 | 0.00 | 0.00 | 0.00 | 37 | 1020.6 |
| 20260902151010 | 75 | 95 | 0.0 | 6.0 | 0.00 | 0.00 | 0.00 | 36 | 1020.6 |
| 20260902150738 | 75 | 120 | 0.0 | 4.0 | 0.00 | 0.00 | 0.00 | 36 | 1020.6 |
| 20260902150010 | 74 | 129 | 0.0 | 3.0 | 0.00 | 0.00 | 0.00 | 36 | 1020.6 |
| 20260902145738 | 74 | 115 | 0.0 | 3.0 | 0.00 | 0.00 | 0.00 | 38 | 1020.6 |
| 20260902145008 | 74 | 239 | 0.0 | 3.0 | 0.00 | 0.00 | 0.00 | 38 | 1020.6 |
| 20260902144508 | 74 | 221 | 1.0 | 3.0 | 0.00 | 0.00 | 0.00 | 38 | 1020.6 |
| 20260902144007 | 74 | 91 | 1.0 | 5.0 | 0.00 | 0.00 | 0.00 | 39 | 1020.6 |
| 20260902143508 | 75 | 89 | 1.0 | 5.0 | 0.00 | 0.00 | 0.00 | 37 | 1020.6 |
| 20260902143007 | 75 | 104 | 0.0 | 3.0 | 0.00 | 0.00 | 0.00 | 35 | 1020.6 |
| 20260902142509 | 76 | 88 | 0.0 | 2.0 | 0.00 | 0.00 | 0.00 | 36 | 1020.6 |
| 20260902142238 | 75 | 288 | 0.0 | 2.0 | 0.00 | 0.00 | 0.00 | 36 | 1020.6 |
| 20260902141506 | 74 | 112 | 0.0 | 2.0 | 0.00 | 0.00 | 0.00 | 36 | 1020.6 |
| 20260902141006 | 74 | 82 | 0.0 | 0.0 | 0.00 | 0.00 | 0.00 | 38 | 1020.6 |
| 20260902140506 | 73 | 79 | 0.0 | 0.0 | 0.00 | 0.00 | 0.00 | 39 | 1020.6 |
| 20260902140006 | 72 | 77 | 0.0 | 1.0 | 0.00 | 0.00 | 0.00 | 41 | 1020.6 |
| 20260902135506 | 71 | 113 | 0.0 | 1.0 | 0.00 | 0.00 | 0.00 | 40 | 1020.6 |
| 20260902135008 | 71 | 86 | 0.0 | 0.0 | 0.00 | 0.00 | 0.00 | 40 | 1020.6 |
| 20260902134505 | 71 | 209 | 0.0 | 3.0 | 0.00 | 0.00 | 0.00 | 40 | 1020.6 |
| 20260902134006 | 71 | 11 | 0.0 | 3.0 | 0.00 | 0.00 | 0.00 | 37 | 1020.6 |
| 20260902133505 | 71 | 184 | 1.0 | 6.0 | 0.00 | 0.00 | 0.00 | 39 | 1020.6 |
| 20260902133004 | 70 | 269 | 2.0 | 6.0 | 0.00 | 0.00 | 0.00 | 37 | 1020.6 |
| 20260902132503 | 69 | 281 | 2.0 | 6.0 | 0.00 | 0.00 | 0.00 | 38 | 1020.6 |
| 20260902132004 | 69 | 271 | 3.0 | 8.0 | 0.00 | 0.00 | 0.00 | 39 | 1020.6 |
| 20260902131504 | 68 | 281 | 5.0 | 12.0 | 0.00 | 0.00 | 0.00 | 39 | 1020.6 |
| 20260902131003 | 68 | 304 | 5.0 | 12.0 | 0.00 | 0.00 | 0.00 | 39 | 1020.6 |
| 20260902130504 | 67 | 302 | 4.0 | 8.0 | 0.00 | 0.00 | 0.00 | 40 | 1020.6 |
| 20260902130004 | 67 | 266 | 3.0 | 6.0 | 0.00 | 0.00 | 0.00 | 39 | 1020.6 |
| 20260902125504 | 67 | 276 | 3.0 | 6.0 | 0.00 | 0.00 | 0.00 | 39 | 1020.6 |
| 20260902125003 | 66 | 295 | 4.0 | 8.0 | 0.00 | 0.00 | 0.00 | 40 | 1020.6 |
| 20260902124504 | 67 | 278 | 4.0 | 8.0 | 0.00 | 0.00 | 0.00 | 39 | 1020.6 |
| 20260902124002 | 66 | 270 | 2.0 | 6.0 | 0.00 | 0.00 | 0.00 | 40 | 1020.6 |
| 20260902123459 | 65 | 283 | 2.0 | 7.0 | 0.00 | 0.00 | 0.00 | 44 | 1020.6 |
| 20260902122958 | 65 | 287 | 2.0 | 7.0 | 0.00 | 0.00 | 0.00 | 43 | 1020.6 |
| 20260902122500 | 66 | 306 | 1.0 | 6.0 | 0.00 | 0.00 | 0.00 | 41 | 1020.6 |
| 20260902122004 | 66 | 290 | 0.0 | 5.0 | 0.00 | 0.00 | 0.00 | 41 | 1020.6 |
| 20260902122000 | 66 | 273 | 1.0 | 4.0 | 0.00 | 0.00 | 0.00 | 40 | 1020.6 |
| 20260902120958 | 65 | 278 | 1.0 | 5.0 | 0.00 | 0.00 | 0.00 | 41 | 1020.6 |
| 20260902120458 | 65 | 270 | 1.0 | 2.0 | 0.00 | 0.00 | 0.00 | 42 | 1020.6 |
| 20260902120000 | 66 | 260 | 1.0 | 3.0 | 0.00 | 0.00 | 0.00 | 41 | 1020.6 |
| 20260902115456 | 65 | 265 | 0.0 | 3.0 | 0.00 | 0.00 | 0.00 | 41 | 1020.6 |
| 20260902114953 | 65 | 275 | 0.0 | 2.0 | 0.00 | 0.00 | 0.00 | 42 | 1020.6 |
| 20260902114455 | 64 | 146 | 0.0 | 1.0 | 0.00 | 0.00 | 0.00 | 43 | 1020.6 |
| 20260902113954 | 64 | 235 | 0.0 | 0.0 | 0.00 | 0.00 | 0.00 | 47 | 1020.6 |
| 20260902113454 | 64 | 166 | 0.0 | 0.0 | 0.00 | 0.00 | 0.00 | 48 | 1020.6 |
| 20260902112954 | 65 | 115 | 0.0 | 3.0 | 0.00 | 0.00 | 0.00 | 48 | 1020.6 |
| 20260902112453 | 65 | 115 | 0.0 | 3.0 | 0.00 | 0.00 | 0.00 | 47 | 1020.6 |
| 20260902112222 | 65 | 248 | 0.0 | 0.0 | 0.00 | 0.00 | 0.00 | 45 | 1020.6 |
| 20260902111448 | 65 | 248 | 0.0 | 0.0 | 0.00 | 0.00 | 0.00 | 46 | 1020.6 |
| 20260902111218 | 65 | 248 | 0.0 | 2.0 | 0.00 | 0.00 | 0.00 | 47 | 1020.6 |
| 20260902110448 | 65 | 248 | 1.0 | 3.0 | 0.00 | 0.00 | 0.00 | 48 | 1020.6 |
| 20260902105946 | 65 | 293 | 2.0 | 5.0 | 0.00 | 0.00 | 0.00 | 47 | 1020.6 |
| 20260902105446 | 65 | 278 | 3.0 | 6.0 | 0.00 | 0.00 | 0.00 | 48 | 1020.6 |
| 20260902104948 | 65 | 281 | 3.0 | 6.0 | 0.00 | 0.00 | 0.00 | 47 | 1020.6 |
| 20260902104718 | 66 | 279 | 3.0 | 6.0 | 0.00 | 0.00 | 0.00 | 47 | 1020.6 |
| 20260902103944 | 66 | 271 | 3.0 | 6.0 | 0.00 | 0.00 | 0.00 | 46 | 1020.6 |
| 20260902103445 | 67 | 280 | 2.0 | 4.0 | 0.00 | 0.00 | 0.00 | 45 | 1020.6 |
| 20260902102945 | 67 | 276 | 2.0 | 4.0 | 0.00 | 0.00 | 0.00 | 44 | 1020.6 |
| 20260902102449 | 67 | 272 | 2.0 | 3.0 | 0.00 | 0.00 | 0.00 | 44 | 1020.6 |
| 20260902101943 | 68 | 274 | 2.0 | 3.0 | 0.00 | 0.00 | 0.00 | 44 | 1020.6 |
| 20260902101446 | 68 | 287 | 0.0 | 0.0 | 0.00 | 0.00 | 0.00 | 44 | 1020.6 |
| 20260902101441 | 68 | 283 | 1.0 | 3.0 | 0.00 | 0.00 | 0.00 | 44 | 1020.6 |
| 20260902100442 | 69 | 274 | 0.0 | 0.0 | 0.00 | 0.00 | 0.00 | 43 | 1020.6 |
| 20260902100213 | 68 | 274 | 0.0 | 0.0 | 0.00 | 0.00 | 0.00 | 43 | 1020.6 |
| 20260902095442 | 68 | 274 | 0.0 | 0.0 | 0.00 | 0.00 | 0.00 | 44 | 1020.6 |
| 20260902094942 | 68 | 255 | 0.0 | 0.0 | 0.00 | 0.00 | 0.00 | 44 | 1020.6 |
| 20260902094445 | 68 | 277 | 0.0 | 0.0 | 0.00 | 0.00 | 0.00 | 44 | 1020.6 |
| 20260902093940 | 68 | 277 | 0.0 | 0.0 | 0.00 | 0.00 | 0.00 | 45 | 1020.6 |
| 20260902093441 | 67 | 277 | 0.0 | 0.0 | 0.00 | 0.00 | 0.00 | 46 | 1020.6 |
| 20260902092940 | 67 | 275 | 0.0 | 0.0 | 0.00 | 0.00 | 0.00 | 46 | 1020.6 |
| 20260902092440 | 67 | 358 | 0.0 | 0.0 | 0.00 | 0.00 | 0.00 | 45 | 1020.6 |
| 20260902091940 | 68 | 358 | 0.0 | 3.0 | 0.00 | 0.00 | 0.00 | 45 | 1020.6 |
| 20260902091445 | 67 | 117 | 0.0 | 0.0 | 0.00 | 0.00 | 0.00 | 46 | 1020.6 |
| 20260902091440 | 67 | 358 | 0.0 | 3.0 | 0.00 | 0.00 | 0.00 | 45 | 1020.6 |
| 20260902090711 | 67 | 289 | 0.0 | 0.0 | 0.00 | 0.00 | 0.00 | 45 | 1020.6 |
| 20260902085940 | 67 | 290 | 0.0 | 0.0 | 0.00 | 0.00 | 0.00 | 44 | 1020.6 |
| 20260902085441 | 67 | 289 | 0.0 | 0.0 | 0.00 | 0.00 | 0.00 | 44 | 1020.6 |
| 20260902085211 | 67 | 290 | 0.0 | 0.0 | 0.00 | 0.00 | 0.00 | 45 | 1020.6 |
| 20260902084440 | 66 | 290 | 0.0 | 0.0 | 0.00 | 0.00 | 0.00 | 46 | 1020.6 |
| 20260902083940 | 66 | 298 | 0.0 | 3.0 | 0.00 | 0.00 | 0.00 | 46 | 1020.6 |
| 20260902083441 | 65 | 298 | 0.0 | 3.0 | 0.00 | 0.00 | 0.00 | 47 | 1020.6 |
| 20260902082942 | 65 | 290 | 0.0 | 0.0 | 0.00 | 0.00 | 0.00 | 47 | 1020.6 |
| 20260902082713 | 65 | 290 | 0.0 | 0.0 | 0.00 | 0.00 | 0.00 | 47 | 1020.6 |
| 20260902081939 | 65 | 290 | 0.0 | 0.0 | 0.00 | 0.00 | 0.00 | 47 | 1020.6 |
| 20260902081439 | 66 | 290 | 0.0 | 0.0 | 0.00 | 0.00 | 0.00 | 46 | 1020.6 |
| 20260902080941 | 67 | 290 | 0.0 | 0.0 | 0.00 | 0.00 | 0.00 | 45 | 1020.6 |
| 20260902080441 | 68 | 290 | 0.0 | 4.0 | 0.00 | 0.00 | 0.00 | 43 | 1020.6 |
| 20260902075940 | 69 | 290 | 2.0 | 6.0 | 0.00 | 0.00 | 0.00 | 42 | 1020.6 |
| 20260902075441 | 69 | 281 | 2.0 | 6.0 | 0.00 | 0.00 | 0.00 | 42 | 1020.6 |
| 20260902074941 | 67 | 293 | 1.0 | 5.0 | 0.00 | 0.00 | 0.00 | 45 | 1020.6 |
| 20260902074441 | 65 | 291 | 1.0 | 4.0 | 0.00 | 0.00 | 0.00 | 47 | 1020.6 |
| 20260902074212 | 66 | 293 | 2.0 | 5.0 | 0.00 | 0.00 | 0.00 | 46 | 1020.6 |
| 20260902073441 | 67 | 302 | 2.0 | 5.0 | 0.00 | 0.00 | 0.00 | 45 | 1020.6 |
| 20260902073212 | 66 | 278 | 2.0 | 5.0 | 0.00 | 0.00 | 0.00 | 46 | 1020.6 |
| 20260902072436 | 67 | 298 | 2.0 | 5.0 | 0.00 | 0.00 | 0.00 | 46 | 1020.6 |
| 20260902071936 | 67 | 295 | 2.0 | 4.0 | 0.00 | 0.00 | 0.00 | 46 | 1020.6 |
| 20260902071436 | 67 | 296 | 2.0 | 4.0 | 0.00 | 0.00 | 0.00 | 45 | 1020.6 |
| 20260902070938 | 68 | 324 | 3.0 | 5.0 | 0.00 | 0.00 | 0.00 | 44 | 1020.6 |
| 20260902070437 | 68 | 300 | 3.0 | 6.0 | 0.00 | 0.01 | 0.00 | 43 | 1020.6 |
| 20260902070207 | 68 | 293 | 4.0 | 9.0 | 0.00 | 0.01 | 0.00 | 43 | 1020.6 |
| 20260902065436 | 67 | 311 | 5.0 | 9.0 | 0.00 | 0.02 | 0.00 | 45 | 1020.6 |
| 20260902064944 | 67 | 295 | 5.0 | 8.0 | 0.00 | 0.03 | 0.00 | 46 | 1020.6 |
| 20260902064938 | 67 | 309 | 5.0 | 8.0 | 0.00 | 0.03 | 0.00 | 46 | 1020.6 |
| 20260902063939 | 66 | 300 | 5.0 | 8.0 | 0.00 | 0.03 | 0.00 | 47 | 1020.6 |
| 20260902063437 | 65 | 280 | 4.0 | 7.0 | 0.00 | 0.03 | 0.00 | 49 | 1020.6 |
| 20260902062937 | 66 | 294 | 3.0 | 5.0 | 0.00 | 0.03 | 0.00 | 48 | 1020.6 |
| 20260902061936 | 68 | 288 | 4.0 | 8.0 | 0.00 | 0.03 | 0.00 | 44 | 1020.6 |
| 20260902061436 | 69 | 290 | 5.0 | 8.0 | 0.00 | 0.03 | 0.00 | 43 | 1020.6 |
| 20260902061206 | 69 | 276 | 5.0 | 7.0 | 0.00 | 0.03 | 0.00 | 42 | 1020.6 |
| 20260902060435 | 68 | 280 | 4.0 | 11.0 | 0.00 | 0.03 | 0.00 | 45 | 1020.6 |
| 20260902060205 | 67 | 290 | 4.0 | 11.0 | 0.00 | 0.03 | 0.03 | 46 | 1020.6 |
| 20260902055435 | 67 | 295 | 4.0 | 8.0 | 0.00 | 0.03 | 0.03 | 46 | 1020.6 |
| 20260902054931 | 67 | 280 | 4.0 | 8.0 | 0.00 | 0.03 | 0.03 | 47 | 1020.6 |
| 20260902054433 | 67 | 274 | 4.0 | 6.0 | 0.00 | 0.03 | 0.03 | 48 | 1020.6 |
| 20260902053933 | 65 | 280 | 4.0 | 6.0 | 0.00 | 0.03 | 0.03 | 50 | 1020.6 |
| 20260902053702 | 64 | 290 | 4.0 | 7.0 | 0.00 | 0.03 | 0.03 | 53 | 1020.6 |
| 20260902052933 | 64 | 293 | 4.0 | 7.0 | 0.00 | 0.03 | 0.03 | 54 | 1020.6 |
| 20260902052703 | 65 | 297 | 4.0 | 6.0 | 0.00 | 0.03 | 0.03 | 54 | 1020.6 |
| 20260902051934 | 65 | 304 | 4.0 | 7.0 | 0.00 | 0.03 | 0.03 | 54 | 1020.6 |
| 20260902051432 | 65 | 277 | 5.0 | 7.0 | 0.00 | 0.03 | 0.03 | 54 | 1020.6 |
| 20260902050932 | 65 | 293 | 4.0 | 7.0 | 0.00 | 0.03 | 0.03 | 55 | 1020.6 |
| 20260902050705 | 65 | 300 | 4.0 | 6.0 | 0.00 | 0.03 | 0.03 | 55 | 1020.6 |
| 20260902045933 | 67 | 296 | 4.0 | 6.0 | 0.00 | 0.03 | 0.03 | 52 | 1020.6 |
| 20260902045435 | 67 | 302 | 3.0 | 6.0 | 0.00 | 0.03 | 0.03 | 50 | 1020.6 |
| 20260902044933 | 66 | 295 | 3.0 | 6.0 | 0.00 | 0.03 | 0.03 | 52 | 1020.6 |
| 20260902044432 | 66 | 297 | 3.0 | 4.0 | 0.00 | 0.03 | 0.03 | 53 | 1020.6 |
| 20260902043934 | 67 | 295 | 2.0 | 4.0 | 0.00 | 0.03 | 0.03 | 52 | 1020.6 |
| 20260902042930 | 67 | 302 | 3.0 | 5.0 | 0.00 | 0.03 | 0.03 | 53 | 1020.6 |
| 20260902042430 | 67 | 298 | 4.0 | 6.0 | 0.00 | 0.03 | 0.03 | 53 | 1020.6 |
| 20260902041930 | 68 | 295 | 4.0 | 6.0 | 0.00 | 0.03 | 0.03 | 52 | 1020.6 |
| 20260902041430 | 68 | 281 | 3.0 | 6.0 | 0.00 | 0.03 | 0.03 | 53 | 1020.6 |
| 20260902040931 | 68 | 279 | 2.0 | 5.0 | 0.00 | 0.03 | 0.03 | 54 | 1020.6 |
| 20260902040431 | 69 | 290 | 3.0 | 5.0 | 0.00 | 0.03 | 0.03 | 53 | 1020.6 |
| 20260902035932 | 69 | 310 | 4.0 | 6.0 | 0.00 | 0.03 | 0.03 | 51 | 1020.6 |
| 20260902035431 | 68 | 281 | 4.0 | 6.0 | 0.00 | 0.03 | 0.03 | 53 | 1020.6 |
| 20260902035203 | 67 | 300 | 4.0 | 6.0 | 0.00 | 0.03 | 0.03 | 60 | 1020.6 |
| 20260902034429 | 68 | 297 | 4.0 | 7.0 | 0.00 | 0.03 | 0.03 | 60 | 1020.6 |
| 20260902033931 | 69 | 310 | 5.0 | 9.0 | 0.00 | 0.03 | 0.03 | 56 | 1020.6 |
| 20260902033427 | 70 | 293 | 5.0 | 9.0 | 0.00 | 0.03 | 0.03 | 52 | 1020.6 |
| 20260902032927 | 69 | 278 | 4.0 | 7.0 | 0.00 | 0.03 | 0.03 | 50 | 1020.6 |
| 20260902032701 | 69 | 300 | 4.0 | 6.0 | 0.00 | 0.03 | 0.03 | 52 | 1020.6 |
| 20260902031929 | 70 | 290 | 3.0 | 6.0 | 0.00 | 0.03 | 0.03 | 50 | 1020.6 |
| 20260902031429 | 70 | 289 | 1.0 | 5.0 | 0.00 | 0.03 | 0.03 | 49 | 1020.6 |
| 20260902030928 | 71 | 305 | 2.0 | 5.0 | 0.00 | 0.03 | 0.03 | 47 | 1020.6 |
| 20260902030702 | 71 | 344 | 2.0 | 4.0 | 0.00 | 0.03 | 0.03 | 47 | 1020.6 |
| 20260902025927 | 72 | 315 | 2.0 | 4.0 | 0.00 | 0.03 | 0.03 | 46 | 1020.6 |
| 20260902025427 | 73 | 288 | 0.0 | 3.0 | 0.00 | 0.03 | 0.03 | 42 | 1020.6 |
| 20260902024924 | 73 | 275 | 0.0 | 0.0 | 0.00 | 0.04 | 0.03 | 40 | 1020.6 |
| 20260902024424 | 73 | 275 | 0.0 | 0.0 | 0.00 | 0.05 | 0.03 | 41 | 1020.6 |
| 20260902023922 | 72 | 275 | 0.0 | 0.0 | 0.00 | 0.06 | 0.03 | 40 | 1020.6 |
| 20260902023421 | 72 | 275 | 0.0 | 0.0 | 0.00 | 0.07 | 0.03 | 42 | 1020.6 |
| 20260902023150 | 73 | 275 | 0.0 | 0.0 | 0.00 | 0.07 | 0.03 | 42 | 1020.6 |
| 20260902022421 | 73 | 275 | 0.0 | 0.0 | 0.00 | 0.07 | 0.03 | 40 | 1020.6 |
| 20260902021916 | 74 | 275 | 0.0 | 1.0 | 0.00 | 0.08 | 0.03 | 39 | 1020.6 |
| 20260902021647 | 74 | 275 | 0.0 | 1.0 | 0.00 | 0.08 | 0.03 | 39 | 1020.6 |
| 20260902021149 | 74 | 278 | 0.0 | 0.0 | 0.00 | 0.09 | 0.03 | 39 | 1020.6 |
| 20260902020648 | 73 | 278 | 0.0 | 2.0 | 0.00 | 0.09 | 0.03 | 39 | 1020.6 |
| 20260902015918 | 73 | 278 | 1.0 | 4.0 | 0.00 | 0.09 | 0.03 | 41 | 1020.6 |
| 20260902015414 | 73 | 285 | 1.0 | 4.0 | 0.00 | 0.09 | 0.03 | 42 | 1020.6 |
| 20260902014914 | 73 | 299 | 2.0 | 9.0 | 0.00 | 0.09 | 0.03 | 40 | 1020.6 |
| 20260902014648 | 73 | 22 | 5.0 | 12.0 | 0.00 | 0.09 | 0.03 | 42 | 1020.6 |
| 20260902013915 | 73 | 311 | 5.0 | 16.0 | 0.00 | 0.09 | 0.03 | 44 | 1020.6 |
| 20260902013645 | 74 | 278 | 3.0 | 16.0 | 0.00 | 0.09 | 0.03 | 41 | 1020.6 |
| 20260902012914 | 74 | 281 | 3.0 | 5.0 | 0.00 | 0.09 | 0.03 | 40 | 1020.6 |
| 20260902012646 | 74 | 295 | 3.0 | 5.0 | 0.00 | 0.09 | 0.03 | 40 | 1020.6 |
| 20260902011914 | 74 | 294 | 2.0 | 6.0 | 0.00 | 0.09 | 0.03 | 41 | 1020.6 |